This is the latest recevied weather packets stored in our database for station/object KD5FHA. If no packets are shown the sender has not sent any weather packets the latest 10 day(s).
| Time | Temp. | Humidity | Pressure | Rain* | Wind** | Luminosity | Snow |
|---|---|---|---|---|---|---|---|
| 1777421040 | 25.56° C | 94% | 1011.1 hPa | 4.83 mm | - | 8 W/m² | - |
| 1777420736 | 25.56° C | 93% | 1011.5 hPa | 6.1 mm | - | 6 W/m² | - |
| 1777420432 | 25.56° C | 91% | 1011.8 hPa | 6.6 mm | - | 4 W/m² | - |
| 1777420123 | 25.56° C | 92% | 1011.5 hPa | 3.56 mm | - | 3 W/m² | - |
| 1777419819 | 25.56° C | 92% | 1011.3 hPa | 4.32 mm | - | 2 W/m² | - |
| 1777419517 | 26.11° C | 91% | 1011.1 hPa | 4.32 mm | - | 2 W/m² | - |
| 1777419216 | 26.11° C | 90% | 1010.9 hPa | 3.05 mm | - | 2 W/m² | - |
| 1777418912 | 26.11° C | 88% | 1011.2 hPa | 3.05 mm | - | 4 W/m² | - |
| 1777418607 | 26.67° C | 87% | 1010.1 hPa | 1.78 mm | - | 6 W/m² | - |
| 1777418304 | 26.67° C | 85% | 1010.4 hPa | 0.51 mm | - | 8 W/m² | - |
| 1777418000 | 26.67° C | 84% | 1009.9 hPa | 0 mm | - | 10 W/m² | - |
| 1777417696 | 27.22° C | 84% | 1010.2 hPa | 0 mm | - | 11 W/m² | - |
| 1777417391 | 27.22° C | 83% | 1009.8 hPa | 0 mm | - | 11 W/m² | - |
| 1777417089 | 27.22° C | 83% | 1009.9 hPa | 0 mm | - | 12 W/m² | - |
| 1777416784 | 27.22° C | 83% | 1010.5 hPa | 0 mm | - | 13 W/m² | - |
| 1777416479 | 27.22° C | 83% | 1010.5 hPa | 0 mm | - | 14 W/m² | - |
| 1777416176 | 27.22° C | 83% | 1010.6 hPa | 0 mm | - | 16 W/m² | - |
| 1777415875 | 27.22° C | 82% | 1010.7 hPa | 0 mm | - | 19 W/m² | - |
| 1777415571 | 27.22° C | 82% | 1010.6 hPa | 0 mm | - | 21 W/m² | - |
| 1777415267 | 27.22° C | 82% | 1010.7 hPa | 0 mm | - | 24 W/m² | - |
| 1777414963 | 27.22° C | 82% | 1010.5 hPa | 0 mm | - | 26 W/m² | - |
| 1777414662 | 27.22° C | 82% | 1010.5 hPa | 0 mm | - | 29 W/m² | - |
| 1777414358 | 27.22° C | 82% | 1010.3 hPa | 0 mm | - | 34 W/m² | - |
| 1777414052 | 27.22° C | 82% | 1010.4 hPa | 0 mm | - | 35 W/m² | - |
| 1777413747 | 27.78° C | 82% | 1010.6 hPa | 0 mm | - | 42 W/m² | - |
* Rain latest hour (hover to see other rain measurements)
** Current wind speed in m/s (hover to see current wind gust speed)